Location: Rumah Geringgi
(3.1667°N, 113.1667°E)
Time: 19:11:54
(UTC+00:00)

Cosmos 724 - Pass Details

Date: 03 August 2024
Orbit: 862 x 932 km, 65.6° (Epoch: 10 September)

Event Time Altitude Azimuth Distance (km) Brightness Sun altitude
Exits shadow 21:48:47 - 207° (SSW) 3,460 7.0 -9.7°
Reaches altitude 10° 21:51:12 10° 210° (SSW) 2,555 6.3 -9.1°
Maximum altitude 21:57:03 64° 291° (WNW) 970 4.3 -7.7°
Drops below altitude 10° 22:02:47 10° 12° (NNE) 2,506 7.1 -6.4°
Sets 22:05:16 0° 15° (NNE) 3,435 7.9 -5.8°
